Location: Isles
(48.9125°N, 2.8272°E)
Time: 13:12:14
(UTC+00:00)

Cosmos 1461 - Pass Details

Date: 03 February 2023
Orbit: 492 x 644 km, 65.0° (Epoch: 25 March)

Event Time Altitude Azimuth Distance (km) Brightness Sun altitude
Rises 17:32:44 0° 183° (S) 2,733 6.6 -7.6°
Reaches altitude 10° 17:35:10 10° 170° (S) 1,872 5.6 -8.0°
Maximum altitude 17:38:39 25° 115° (ESE) 1,193 4.1 -8.5°
Enters shadow 17:42:05 11° 61° (ENE) 1,896 4.9 -9.0°
